EW7244 Weather Reports


time (UTC)temp
F
wind
direction
speed
knots
gust
knots
rain 1hr
in
rain 24hr
in
rain mn
in
humidity
%
barometer
mb
20260507200104 53 234 0.0 0.0 0.00 0.17 0.17 93 1011.6
20260507194546 53 234 0.0 0.0 0.00 0.17 0.17 93 1011.5
20260507193131 53 297 0.0 0.0 0.00 0.17 0.17 93 1011.2
20260507191558 53 298 0.0 0.0 0.00 0.17 0.17 92 1011.0
20260507190030 52 306 0.0 0.0 0.00 0.17 0.17 92 1010.9
20260507184537 53 280 0.0 0.0 0.00 0.17 0.17 92 1010.5
20260507183033 52 286 0.0 0.0 0.00 0.17 0.17 92 1010.4
20260507181503 52 333 0.0 0.0 0.00 0.17 0.17 92 1010.3
20260507180023 53 244 0.0 0.0 0.00 0.17 0.17 93 1010.0
20260507174509 53 244 0.0 0.0 0.00 0.17 0.17 93 1009.8
20260507173022 54 244 0.0 0.0 0.00 0.17 0.17 93 1009.7
20260507171601 54 244 0.0 0.0 0.00 0.17 0.17 93 1009.6
20260507170030 53 246 0.0 0.0 0.00 0.17 0.17 92 1009.6
20260507164553 54 241 0.0 0.0 0.00 0.17 0.17 92 1009.6
20260507163015 54 241 0.0 0.0 0.00 0.17 0.17 92 1009.6
20260507161525 54 241 0.0 0.0 0.00 0.17 0.17 92 1009.6
20260507160054 54 244 0.0 0.0 0.00 0.17 0.17 91 1009.3
20260507154515 56 244 0.0 0.0 0.00 0.18 0.17 86 1009.3
20260507153021 60 243 0.0 0.0 0.00 0.18 0.17 84 1009.1
20260507151543 59 243 0.0 0.0 0.00 0.18 0.17 85 1009.0
20260507150001 61 242 0.0 0.0 0.00 0.18 0.17 83 1008.9
20260507144604 60 242 0.0 0.0 0.00 0.19 0.17 80 1009.0
20260507143045 59 155 0.0 0.0 0.01 0.19 0.17 80 1009.2
20260507141620 57 247 0.0 0.0 0.02 0.19 0.17 93 1009.2
20260507140109 54 294 0.0 0.0 0.02 0.19 0.17 94 1009.4
20260507134551 53 296 0.0 0.0 0.02 0.27 0.17 93 1009.6
20260507133030 54 298 0.0 0.0 0.01 0.26 0.17 93 1010.1
20260507131525 54 299 0.0 0.0 0.02 0.25 0.16 92 1010.2
20260507130019 54 107 0.0 0.0 0.05 0.25 0.16 93 1010.2
20260507124606 54 107 0.0 0.0 0.06 0.38 0.16 93 1010.0
20260507123046 53 107 0.0 0.0 0.11 0.38 0.16 93 1009.6
20260507121554 53 277 0.0 0.0 0.13 0.36 0.14 93 1009.4
20260507120054 54 281 0.0 0.0 0.10 0.33 0.11 92 1009.3
20260507114554 54 280 0.0 0.0 0.10 0.34 0.10 91 1009.2
20260507113043 55 281 0.0 0.0 0.05 0.28 0.05 89 1009.1
20260507111603 57 290 0.0 0.0 0.02 0.25 0.02 85 1008.9
20260507110047 61 302 0.0 0.0 0.01 0.24 0.01 79 1008.8
20260507104545 61 302 0.0 0.0 0.00 0.24 0.00 65 1009.1
20260507103039 62 22 0.0 0.0 0.00 0.24 0.00 69 1009.2
20260507101529 61 100 0.0 0.9 0.00 0.24 0.00 72 1009.4
20260507100048 61 46 0.0 0.0 0.00 0.24 0.00 73 1009.6
20260507094544 60 142 0.0 2.6 0.00 0.24 0.00 77 1009.7
20260507093059 59 134 0.0 0.0 0.00 0.24 0.00 77 1009.7
20260507091550 58 104 0.0 0.0 0.00 0.24 0.00 79 1009.7
20260507090045 57 333 0.0 0.0 0.00 0.24 0.00 81 1009.7
20260507084541 56 74 0.0 0.0 0.00 0.28 0.00 80 1009.8
20260507083021 55 296 0.0 0.0 0.00 0.28 0.00 82 1009.9
20260507081512 55 296 0.0 0.0 0.00 0.28 0.00 83 1009.9
20260507080049 55 13 0.0 0.0 0.00 0.28 0.00 85 1009.9
20260507074525 54 107 0.0 0.0 0.00 0.36 0.00 88 1009.9
20260507073042 54 107 0.0 0.0 0.00 0.36 0.00 88 1009.8
20260507071604 54 90 0.0 0.0 0.00 0.36 0.00 88 1009.7
20260507070054 54 75 0.0 0.0 0.00 0.36 0.00 91 1009.7
20260507064603 53 104 0.0 0.0 0.00 0.44 0.00 93 1009.7
20260507063057 53 124 0.0 0.0 0.00 0.44 0.00 94 1009.6
20260507061551 52 160 0.0 0.0 0.00 0.44 0.00 96 1009.6
20260507060015 52 96 0.0 0.0 0.00 0.44 0.00 96 1009.5
20260507054609 50 312 0.0 0.0 0.00 0.47 0.00 96 1009.6
20260507053054 50 312 0.0 0.0 0.00 0.47 0.00 96 1009.4
20260507051549 50 312 0.0 0.0 0.00 0.47 0.00 96 1009.2
20260507050043 50 312 0.0 0.0 0.00 0.47 0.00 96 1009.2
20260507044555 50 312 0.0 0.0 0.00 0.47 0.00 96 1009.0
20260507043103 50 312 0.0 0.0 0.00 0.47 0.00 96 1008.8
20260507041554 50 312 0.0 0.0 0.00 0.47 0.00 96 1008.7
20260507040059 50 312 0.0 0.0 0.00 0.47 0.00 96 1008.6
20260507034607 50 312 0.0 0.0 0.00 0.47 0.00 96 1008.5
20260507033042 50 312 0.0 0.0 0.00 0.47 0.00 96 1008.5
20260507031528 50 313 0.0 0.0 0.00 0.47 0.00 96 1008.3
20260507030010 50 312 0.0 0.0 0.00 0.47 0.00 96 1008.3
20260507024503 50 312 0.0 0.0 0.00 0.47 0.00 96 1008.3
20260507023021 51 312 0.0 0.0 0.00 0.47 0.00 96 1008.4
20260507021558 50 312 0.0 0.0 0.00 0.47 0.00 96 1008.5
20260507020046 50 312 0.0 0.0 0.00 0.47 0.00 96 1008.5
20260507014606 50 312 0.0 0.0 0.00 0.47 0.00 96 1008.4
20260507011543 51 312 0.0 0.0 0.00 0.47 0.00 96 1008.2
20260507010029 51 312 0.0 0.0 0.00 0.47 0.00 96 1008.3
20260507004552 50 312 0.0 0.0 0.00 0.47 0.00 96 1008.3
20260507003047 51 312 0.0 0.0 0.00 0.47 0.00 96 1008.2
20260507001606 50 312 0.0 0.0 0.00 0.47 0.00 96 1008.3
20260507000058 50 312 0.0 0.0 0.00 0.47 0.00 96 1008.3
20260506234552 50 312 0.0 0.0 0.00 0.47 0.00 96 1008.3
20260506233048 50 333 0.0 0.0 0.00 0.47 0.00 96 1008.3
20260506231547 50 333 0.0 0.0 0.00 0.47 0.00 96 1008.2
20260506230052 50 333 0.0 0.0 0.00 0.47 0.00 96 1008.2
20260506224559 50 333 0.0 0.0 0.00 0.47 0.00 95 1008.2
20260506223100 50 333 0.0 0.0 0.00 0.47 0.00 95 1008.2
20260506221542 51 333 0.0 0.0 0.00 0.47 0.00 95 1008.2
20260506220029 51 333 0.0 0.0 0.00 0.47 0.00 96 1008.0
20260506214518 52 333 0.0 0.0 0.00 0.47 0.47 96 1007.9
20260506213100 52 333 0.0 0.0 0.00 0.47 0.47 96 1008.0
20260506211557 52 333 0.0 0.0 0.00 0.47 0.47 95 1008.1
20260506210046 52 333 0.0 0.0 0.00 0.47 0.47 95 1007.9
20260506204559 52 311 0.0 0.0 0.00 0.47 0.47 96 1007.9
20260506203041 52 213 0.0 0.0 0.00 0.47 0.47 96 1007.8
20260506201544 52 213 0.0 0.0 0.00 0.47 0.47 95 1007.7